Retour au catalogue

STARLINK-6288

ActifCommunicationsVLEO
NORAD 56398·PAYLOAD·🇺🇸 United States

Lancé May 4, 2023 depuis Cape Canaveral Space Force Station

Loading…

Prochains Passages (prochaines 24 heures)

TLE

FraisSource: CelesTrak SupGP

Époque: Sep 15, 2026, 02:54 UTC

1 56398C 23061AA  26258.12131944 -.00015633  00000+0 -56641-3 0  2583
2 56398  43.0016 197.1047 0001508 271.2436 217.5095 15.27574500    11

Suivez STARLINK-6288 en temps réel avec AllMySat

Download on the App Store